Time,TemperatureF,DewpointF,PressureIn,WindDirection,WindDirectionDegrees,WindSpeedMPH,WindSpeedGustMPH,Humidity,HourlyPrecipIn,Conditions,Clouds,dailyrainin,SolarRadiationWatts/m^2,SoftwareType,DateUTC
2013-03-01 00:22:00,34.0,33.0,-100.00,West,278,4.0,7.0,96,0.00,,,0.03,0.000000,,2013-03-01 05:22:00,
2013-03-01 00:33:00,34.0,33.0,-100.00,West,278,4.0,7.0,96,0.00,,,0.03,0.000000,,2013-03-01 05:33:00,
2013-03-01 00:42:00,34.0,33.0,-100.00,West,278,4.0,7.0,96,0.00,,,0.03,0.000000,,2013-03-01 05:42:00,
2013-03-01 00:52:00,34.0,33.0,-100.00,West,278,4.0,7.0,96,0.00,,,0.03,0.000000,,2013-03-01 05:52:00,
2013-03-01 01:22:00,34.0,33.0,-100.00,WNW,299,4.0,6.0,97,0.01,,,0.04,0.000000,,2013-03-01 06:22:00,
2013-03-01 01:32:00,34.0,33.0,-100.00,WNW,299,4.0,6.0,97,0.01,,,0.04,0.000000,,2013-03-01 06:32:00,
2013-03-01 01:42:00,34.0,33.0,-100.00,WNW,299,4.0,6.0,97,0.01,,,0.04,0.000000,,2013-03-01 06:42:00,
2013-03-01 01:52:00,34.0,33.0,-100.00,WNW,299,4.0,6.0,97,0.01,,,0.04,0.000000,,2013-03-01 06:52:00,
2013-03-01 02:22:00,33.0,32.0,-100.00,NW,304,3.0,7.0,97,0.01,,,0.05,0.000000,,2013-03-01 07:22:00,
2013-03-01 02:32:00,33.0,32.0,-100.00,NW,304,3.0,7.0,97,0.01,,,0.05,0.000000,,2013-03-01 07:32:00,
2013-03-01 02:42:00,33.0,32.0,-100.00,NW,304,3.0,7.0,97,0.01,,,0.05,0.000000,,2013-03-01 07:42:00,
2013-03-01 02:52:00,33.0,32.0,-100.00,NW,304,3.0,7.0,97,0.01,,,0.05,0.000000,,2013-03-01 07:52:00,
2013-03-01 03:22:00,33.0,32.0,-100.00,NW,317,3.0,8.0,97,0.00,,,0.05,0.000000,,2013-03-01 08:22:00,
2013-03-01 03:32:00,33.0,32.0,-100.00,NW,317,3.0,8.0,97,0.00,,,0.05,0.000000,,2013-03-01 08:32:00,
2013-03-01 03:43:00,33.0,32.0,-100.00,NW,317,3.0,8.0,97,0.00,,,0.05,0.000000,,2013-03-01 08:43:00,
2013-03-01 03:53:00,33.0,32.0,-100.00,NW,317,3.0,8.0,97,0.00,,,0.05,0.000000,,2013-03-01 08:53:00,
2013-03-01 04:12:00,33.0,32.0,-100.00,NW,306,2.0,7.0,97,0.00,,,0.05,0.000000,,2013-03-01 09:12:00,
2013-03-01 04:22:00,33.0,32.0,-100.00,NW,306,2.0,7.0,97,0.00,,,0.05,0.000000,,2013-03-01 09:22:00,
2013-03-01 04:32:00,33.0,32.0,-100.00,NW,306,2.0,7.0,97,0.00,,,0.05,0.000000,,2013-03-01 09:32:00,
2013-03-01 04:42:00,33.0,32.0,-100.00,NW,306,2.0,7.0,97,0.00,,,0.05,0.000000,,2013-03-01 09:42:00,
2013-03-01 04:52:00,33.0,32.0,-100.00,NW,306,2.0,7.0,97,0.00,,,0.05,0.000000,,2013-03-01 09:52:00,
2013-03-01 05:22:00,33.0,32.0,-100.00,WNW,302,3.0,6.0,97,0.01,,,0.06,0.000000,,2013-03-01 10:22:00,
2013-03-01 05:32:00,33.0,32.0,-100.00,WNW,302,3.0,6.0,97,0.01,,,0.06,0.000000,,2013-03-01 10:32:00,
2013-03-01 05:42:00,33.0,32.0,-100.00,WNW,302,3.0,6.0,97,0.01,,,0.06,0.000000,,2013-03-01 10:42:00,
2013-03-01 05:52:00,33.0,32.0,-100.00,WNW,302,3.0,6.0,97,0.01,,,0.06,0.000000,,2013-03-01 10:52:00,
2013-03-01 06:23:00,32.0,31.0,-100.00,WNW,301,3.0,6.0,97,0.00,,,0.06,0.000000,,2013-03-01 11:23:00,
2013-03-01 06:32:00,32.0,31.0,-100.00,WNW,301,3.0,6.0,97,0.00,,,0.06,0.000000,,2013-03-01 11:32:00,
2013-03-01 06:42:00,32.0,31.0,-100.00,WNW,301,3.0,6.0,97,0.00,,,0.06,0.000000,,2013-03-01 11:42:00,
2013-03-01 06:52:00,32.0,31.0,-100.00,WNW,301,3.0,6.0,97,0.00,,,0.06,0.000000,,2013-03-01 11:52:00,
2013-03-01 07:22:00,32.0,31.0,-100.00,WNW,302,3.0,5.0,97,0.00,,,0.06,0.000000,,2013-03-01 12:22:00,
2013-03-01 07:32:00,32.0,31.0,-100.00,WNW,302,3.0,5.0,97,0.00,,,0.06,0.000000,,2013-03-01 12:32:00,
2013-03-01 07:42:00,32.0,31.0,-100.00,WNW,302,3.0,5.0,97,0.00,,,0.06,0.000000,,2013-03-01 12:42:00,
2013-03-01 07:52:00,32.0,31.0,-100.00,WNW,302,3.0,5.0,97,0.00,,,0.06,0.000000,,2013-03-01 12:52:00,
2013-03-01 08:22:00,32.0,31.0,-100.00,WNW,300,3.0,7.0,97,0.00,,,-99.99,2.000000,,2013-03-01 13:22:00,
2013-03-01 08:32:00,32.0,31.0,-100.00,WNW,300,3.0,7.0,97,0.00,,,-99.99,2.000000,,2013-03-01 13:32:00,
2013-03-01 08:42:00,32.0,31.0,-100.00,WNW,300,3.0,7.0,97,0.00,,,-99.99,2.000000,,2013-03-01 13:42:00,
2013-03-01 08:52:00,32.0,31.0,-100.00,WNW,300,3.0,7.0,97,0.00,,,-99.99,2.000000,,2013-03-01 13:52:00,
2013-03-01 09:22:00,32.0,31.0,-100.00,WNW,296,3.0,7.0,97,0.01,,,0.07,15.000000,,2013-03-01 14:22:00,
2013-03-01 09:32:00,32.0,31.0,-100.00,WNW,296,3.0,7.0,97,0.01,,,0.07,15.000000,,2013-03-01 14:32:00,
2013-03-01 09:42:00,32.0,31.0,-100.00,WNW,296,3.0,7.0,97,0.01,,,0.07,15.000000,,2013-03-01 14:42:00,
2013-03-01 09:52:00,32.0,31.0,-100.00,WNW,296,3.0,7.0,97,0.01,,,0.07,15.000000,,2013-03-01 14:52:00,
2013-03-01 10:21:00,33.0,32.0,-100.00,WNW,291,2.0,7.0,96,0.00,,,0.07,34.000000,,2013-03-01 15:21:00,
2013-03-01 10:32:00,33.0,32.0,-100.00,WNW,291,2.0,7.0,96,0.00,,,0.07,34.000000,,2013-03-01 15:32:00,
2013-03-01 10:42:00,33.0,32.0,-100.00,WNW,291,2.0,7.0,96,0.00,,,0.07,34.000000,,2013-03-01 15:42:00,
2013-03-01 10:52:00,33.0,32.0,-100.00,WNW,291,2.0,7.0,96,0.00,,,0.07,34.000000,,2013-03-01 15:52:00,
2013-03-01 11:22:00,33.0,32.0,-100.00,West,271,3.0,6.0,96,0.01,,,0.07,65.000000,,2013-03-01 16:22:00,
2013-03-01 11:32:00,33.0,32.0,-100.00,West,271,3.0,6.0,96,0.01,,,0.07,65.000000,,2013-03-01 16:32:00,
2013-03-01 11:42:00,33.0,32.0,-100.00,West,271,3.0,6.0,96,0.01,,,0.07,65.000000,,2013-03-01 16:42:00,
2013-03-01 11:52:00,33.0,32.0,-100.00,West,271,3.0,6.0,96,0.01,,,0.07,65.000000,,2013-03-01 16:52:00,
2013-03-01 12:11:00,34.0,33.0,-100.00,NW,306,2.0,6.0,95,0.01,,,0.07,79.000000,,2013-03-01 17:11:00,
2013-03-01 12:21:00,34.0,33.0,-100.00,NW,306,2.0,6.0,95,0.01,,,0.07,79.000000,,2013-03-01 17:21:00,
2013-03-01 12:32:00,34.0,33.0,-100.00,NW,306,2.0,6.0,95,0.01,,,0.07,79.000000,,2013-03-01 17:32:00,
2013-03-01 12:42:00,34.0,33.0,-100.00,NW,306,2.0,6.0,95,0.01,,,0.07,79.000000,,2013-03-01 17:42:00,
2013-03-01 12:52:00,34.0,33.0,-100.00,NW,306,2.0,6.0,95,0.01,,,0.07,79.000000,,2013-03-01 17:52:00,
2013-03-01 13:22:00,34.0,32.0,-100.00,NNE,14,2.0,4.0,94,0.01,,,0.08,64.000000,,2013-03-01 18:22:00,
2013-03-01 13:32:00,34.0,32.0,-100.00,NNE,14,2.0,4.0,94,0.01,,,0.08,64.000000,,2013-03-01 18:32:00,
2013-03-01 13:42:00,34.0,32.0,-100.00,NNE,14,2.0,4.0,94,0.01,,,0.08,64.000000,,2013-03-01 18:42:00,
2013-03-01 13:52:00,34.0,32.0,-100.00,NNE,14,2.0,4.0,94,0.01,,,0.08,64.000000,,2013-03-01 18:52:00,
2013-03-01 14:21:00,36.0,34.0,-100.00,NW,305,2.0,5.0,91,0.00,,,0.08,133.000000,,2013-03-01 19:21:00,
2013-03-01 14:32:00,36.0,34.0,-100.00,NW,305,2.0,5.0,91,0.00,,,0.08,133.000000,,2013-03-01 19:32:00,
2013-03-01 14:42:00,36.0,34.0,-100.00,NW,305,2.0,5.0,91,0.00,,,0.08,133.000000,,2013-03-01 19:42:00,
2013-03-01 14:51:00,36.0,34.0,-100.00,NW,305,2.0,5.0,91,0.00,,,0.08,133.000000,,2013-03-01 19:51:00,
2013-03-01 15:21:00,37.0,33.0,-100.00,NW,311,2.0,5.0,86,0.00,,,0.08,144.000000,,2013-03-01 20:21:00,
2013-03-01 15:32:00,37.0,33.0,-100.00,NW,311,2.0,5.0,86,0.00,,,0.08,144.000000,,2013-03-01 20:32:00,
2013-03-01 15:42:00,37.0,33.0,-100.00,NW,311,2.0,5.0,86,0.00,,,0.08,144.000000,,2013-03-01 20:42:00,
2013-03-01 15:52:00,37.0,33.0,-100.00,NW,311,2.0,5.0,86,0.00,,,0.08,144.000000,,2013-03-01 20:52:00,
2013-03-01 16:21:00,34.0,32.0,-100.00,ENE,58,5.0,9.0,93,0.01,,,0.09,73.000000,,2013-03-01 21:21:00,
2013-03-01 16:32:00,34.0,32.0,-100.00,ENE,58,5.0,9.0,93,0.01,,,0.09,73.000000,,2013-03-01 21:32:00,
2013-03-01 16:42:00,34.0,32.0,-100.00,ENE,58,5.0,9.0,93,0.01,,,0.09,73.000000,,2013-03-01 21:42:00,
2013-03-01 16:52:00,34.0,32.0,-100.00,ENE,58,5.0,9.0,93,0.01,,,0.09,73.000000,,2013-03-01 21:52:00,
2013-03-01 17:22:00,33.0,32.0,-100.00,ENE,58,1.0,8.0,96,0.02,,,0.11,29.000000,,2013-03-01 22:22:00,
2013-03-01 17:32:00,33.0,32.0,-100.00,ENE,58,1.0,8.0,96,0.02,,,0.11,29.000000,,2013-03-01 22:32:00,
2013-03-01 17:42:00,33.0,32.0,-100.00,ENE,58,1.0,8.0,96,0.02,,,0.11,29.000000,,2013-03-01 22:42:00,
2013-03-01 17:51:00,33.0,32.0,-100.00,ENE,58,1.0,8.0,96,0.02,,,0.11,29.000000,,2013-03-01 22:51:00,
2013-03-01 18:21:00,33.0,32.0,-100.00,NNE,12,1.0,4.0,96,0.01,,,0.12,17.000000,,2013-03-01 23:21:00,
2013-03-01 18:32:00,33.0,32.0,-100.00,NNE,12,1.0,4.0,96,0.01,,,0.12,17.000000,,2013-03-01 23:32:00,
2013-03-01 18:42:00,33.0,32.0,-100.00,NNE,12,1.0,4.0,96,0.01,,,0.12,17.000000,,2013-03-01 23:42:00,
2013-03-01 18:52:00,33.0,32.0,-100.00,NNE,12,1.0,4.0,96,0.01,,,0.12,17.000000,,2013-03-01 23:52:00,
2013-03-01 19:22:00,33.0,32.0,-100.00,NNE,13,3.0,8.0,95,0.00,,,0.12,1.000000,,2013-03-02 00:22:00,
2013-03-01 19:32:00,33.0,32.0,-100.00,NNE,13,3.0,8.0,95,0.00,,,0.12,1.000000,,2013-03-02 00:32:00,
2013-03-01 19:42:00,33.0,32.0,-100.00,NNE,13,3.0,8.0,95,0.00,,,0.12,1.000000,,2013-03-02 00:42:00,
2013-03-01 19:52:00,33.0,32.0,-100.00,NNE,13,3.0,8.0,95,0.00,,,0.12,1.000000,,2013-03-02 00:52:00,
2013-03-01 20:21:00,32.0,30.0,-100.00,NNE,17,3.0,7.0,93,0.00,,,0.12,0.000000,,2013-03-02 01:21:00,
2013-03-01 20:32:00,32.0,30.0,-100.00,NNE,17,3.0,7.0,93,0.00,,,0.12,0.000000,,2013-03-02 01:32:00,
2013-03-01 20:42:00,32.0,30.0,-100.00,NNE,17,3.0,7.0,93,0.00,,,0.12,0.000000,,2013-03-02 01:42:00,
2013-03-01 20:52:00,32.0,30.0,-100.00,NNE,17,3.0,7.0,93,0.00,,,0.12,0.000000,,2013-03-02 01:52:00,
2013-03-01 21:22:00,31.0,29.0,-100.00,NE,40,0.0,9.0,92,0.00,,,-99.99,0.000000,,2013-03-02 02:22:00,
2013-03-01 21:32:00,31.0,29.0,-100.00,NE,40,0.0,9.0,92,0.00,,,-99.99,0.000000,,2013-03-02 02:32:00,
2013-03-01 21:42:00,31.0,29.0,-100.00,NE,40,0.0,9.0,92,0.00,,,-99.99,0.000000,,2013-03-02 02:42:00,
2013-03-01 21:52:00,31.0,29.0,-100.00,NE,40,0.0,9.0,92,0.00,,,-99.99,0.000000,,2013-03-02 02:52:00,
2013-03-01 22:22:00,31.0,28.0,-100.00,NNE,30,0.0,0.0,90,0.00,,,0.11,0.000000,,2013-03-02 03:22:00,
2013-03-01 22:32:00,31.0,28.0,-100.00,NNE,30,0.0,0.0,90,0.00,,,0.11,0.000000,,2013-03-02 03:32:00,
2013-03-01 22:42:00,31.0,28.0,-100.00,NNE,30,0.0,0.0,90,0.00,,,0.11,0.000000,,2013-03-02 03:42:00,
2013-03-01 22:52:00,31.0,28.0,-100.00,NNE,30,0.0,0.0,90,0.00,,,0.11,0.000000,,2013-03-02 03:52:00,
2013-03-01 23:22:00,31.0,28.0,-100.00,NNE,20,0.0,0.0,87,0.00,,,0.11,0.000000,,2013-03-02 04:22:00,
2013-03-01 23:32:00,31.0,28.0,-100.00,NNE,20,0.0,0.0,87,0.00,,,0.11,0.000000,,2013-03-02 04:32:00,
2013-03-01 23:42:00,31.0,28.0,-100.00,NNE,20,0.0,0.0,87,0.00,,,0.11,0.000000,,2013-03-02 04:42:00,
2013-03-01 23:52:00,31.0,28.0,-100.00,NNE,20,0.0,0.0,87,0.00,,,0.11,0.000000,,2013-03-02 04:52:00,